DELTA 1 DEB, 42657

Orbit data source: Space-Track

DELTA 1 DEB, 42657 is space debris in SSO originally from a launch on Thu, 12 Jun 1975 UTC launched from the Air Force Western Test Range (AFWTR). Debris objects in space refer to the collection of defunct objects orbiting the Earth. Examples of debris include non-operational satellites, rocket bodies, and fragments generated from explosions, collisions, or faulty payload assembly.

Loading next visibility...
Identifier
42657, 1975-052MS
Orbit
SSO
Country
Flag of USUS
Related business
Manufacturer
Unknown
Mission
Spacecraft
Bus & Motor
Unknown
Mass
Unknown
Launch date (UTC)
1975-06-12 (50 years ago)
Launch vehicle
Unknown
Launch site
Air Force Western Test Range (AFWTR)
Object type
Payload
Rocket body
Debris
Shape & HBR
Unknown shape, 0.1 m
Radar Cross Section
Small (<0.1 m²)

Expand to show TLE details & history
Last TLE update: 11 hours ago

TLE from 11 hours ago
0 DELTA 1 DEB
1 42657U 75052MS  25287.96315523  .00000042  00000-0  12492-3 0  9998
2 42657  99.6876 187.2969 0044541 242.0205 117.6420 13.54469885587987
Epoch: 2025-10-14T23:06Z
TLE epoch observation values (Epoch: 2025-10-14T23:06:56.611Z)
Latitude
-0.00011°
Longitude
176.81699°
Altitude
1,074.13 km
Speed
7.307 km/s
True Right ascension
12h 29m 11s
True Declination
0° 00' 00"
Sunlit
Object was in daylight at epoch
Visualization orbit readout
Latitude
Unknown
Longitude
Unknown
Altitude
Unknown
Speed
Unknown
Apparent Right ascension
Unknown
Apparent Declination
Unknown
Sunlit
N/A
Visualization observer readout
Local Sidereal Time
04:37:32
Azimuth
Unknown
Elevation
Unknown
Doppler factor
Unknown
Orbital elements
Apogee altitude
1,086.253 km
Perigee altitude
1,020.053 km
Semi-major axis
7,431.29 km
Eccentricity
0.00445
Inclination
99.6876°
RAAN
187.2969°
Arg. of periapsis
242.0205°
True anomaly
118.09298°
Mean anomaly
117.642°
Eccentric anomaly
117.86761°
Mean motion
3.38803 °/min
Orbital period
106.26 mins
BSTAR
0.00012492
Loading maneuver chart data...
Computing Atmospheric mass density...
Loading historical data...
Loading historical data...
Loading historical data...
Loading historical data...
Loading historical data...
Loading historical data...
Loading historical data...

Documentation

Showing up to 5 results
|